CW5629 Weather Reports


time (UTC)temp
F
wind
direction
speed
knots
gust
knots
rain 1hr
in
rain 24hr
in
rain mn
in
humidity
%
barometer
mb
20260505214150 54 91 0.0 0.9 0.00 0.00 0.00 70 1012.7
20260505213143 54 91 0.0 0.0 0.00 0.00 0.00 69 1012.7
20260505212135 54 90 0.0 0.9 0.00 0.00 0.00 69 1012.7
20260505211127 54 94 0.0 2.6 0.00 0.00 0.00 68 1012.7
20260505210113 54 99 0.0 4.3 0.00 0.00 0.00 67 1012.6
20260505205125 54 98 0.0 0.9 0.00 0.00 0.00 68 1012.6
20260505204112 55 105 0.0 4.3 0.00 0.00 0.00 67 1012.5
20260505203125 55 97 0.0 0.9 0.00 0.00 0.00 67 1012.6
20260505202114 55 80 0.0 1.7 0.00 0.00 0.00 67 1012.5
20260505201127 55 100 0.0 0.0 0.00 0.00 0.00 68 1012.5
20260505200113 55 100 0.0 0.9 0.00 0.00 0.00 67 1012.4
20260505195123 55 86 0.0 2.6 0.00 0.00 0.00 68 1012.3
20260505194136 56 90 0.0 0.9 0.00 0.00 0.00 67 1012.2
20260505193128 56 68 0.0 0.9 0.00 0.00 0.00 66 1012.1
20260505192114 56 98 0.0 0.9 0.00 0.00 0.00 65 1012.0
20260505191125 56 98 0.0 2.6 0.00 0.00 0.00 65 1012.0
20260505190134 56 88 0.0 2.6 0.00 0.00 0.00 64 1011.9
20260505185123 57 96 0.0 0.9 0.00 0.00 0.00 64 1011.9
20260505184156 57 82 0.0 0.9 0.00 0.00 0.00 63 1011.9
20260505183122 57 97 0.0 1.7 0.00 0.00 0.00 63 1011.9
20260505182135 57 123 0.0 0.9 0.00 0.00 0.00 62 1011.9
20260505181149 58 94 0.0 1.7 0.00 0.00 0.00 62 1011.8
20260505180114 58 121 0.0 3.5 0.00 0.00 0.00 60 1011.8
20260505175127 59 255 0.0 1.7 0.00 0.00 0.00 60 1011.8
20260505174114 59 141 0.0 4.3 0.00 0.00 0.00 59 1011.8
20260505173128 60 99 0.0 0.9 0.00 0.00 0.00 59 1011.8
20260505172140 61 104 0.9 2.6 0.00 0.00 0.00 58 1011.8
20260505171129 62 127 0.0 1.7 0.00 0.00 0.00 57 1011.9
20260505170114 61 111 0.0 2.6 0.00 0.00 0.00 59 1011.9
20260505165126 60 88 0.0 2.6 0.00 0.00 0.00 59 1011.9
20260505164112 60 117 0.0 1.7 0.00 0.00 0.00 59 1011.9
20260505163124 61 95 0.0 2.6 0.00 0.00 0.00 58 1011.9
20260505162136 61 98 0.0 1.7 0.00 0.00 0.00 59 1011.9
20260505161142 61 84 0.0 0.9 0.00 0.00 0.00 59 1011.9
20260505160114 61 115 0.0 3.5 0.00 0.00 0.00 57 1011.9
20260505153123 62 83 0.0 2.6 0.00 0.00 0.00 59 1011.9
20260505152129 62 105 0.9 3.5 0.00 0.00 0.00 58 1011.9
20260505151123 62 78 0.0 4.3 0.00 0.00 0.00 59 1011.9
20260505150137 62 108 0.0 1.7 0.00 0.00 0.00 58 1012.1
20260505140115 64 105 0.0 0.9 0.00 0.00 0.00 58 1012.3
20260505130118 65 72 0.0 2.6 0.00 0.00 0.00 54 1012.5
20260505124139 65 86 0.9 2.6 0.00 0.00 0.00 52 1012.6
20260505123132 65 108 0.9 3.5 0.00 0.00 0.00 51 1012.7
20260505122119 65 119 0.0 4.3 0.00 0.00 0.00 55 1012.7
20260505121113 64 84 0.0 2.6 0.00 0.00 0.00 56 1012.6
20260505120124 64 90 0.0 4.3 0.00 0.00 0.00 55 1012.6
20260505115157 64 105 0.0 2.6 0.00 0.00 0.00 55 1012.6
20260505114122 65 70 0.9 4.3 0.00 0.00 0.00 56 1012.6
20260505113135 64 292 0.0 2.6 0.00 0.00 0.00 58 1012.6
20260505112120 64 19 0.9 5.2 0.00 0.00 0.00 57 1012.8
20260505111117 64 219 0.9 4.3 0.00 0.00 0.00 59 1012.8
20260505110123 63 104 0.9 4.3 0.00 0.00 0.00 60 1012.9
20260505102125 60 91 0.0 2.6 0.00 0.00 0.00 67 1013.3
20260505101132 58 77 0.0 2.6 0.00 0.00 0.00 69 1013.4
20260505100124 58 78 0.0 1.7 0.00 0.00 0.00 72 1013.3
20260505095113 58 96 0.0 1.7 0.00 0.00 0.00 71 1013.3
20260505094120 58 95 0.0 3.5 0.00 0.00 0.00 74 1013.2
20260505093113 58 100 0.0 2.6 0.00 0.00 0.00 77 1013.2
20260505092121 57 82 0.0 0.9 0.00 0.00 0.00 80 1013.2
20260505091113 56 82 0.0 1.7 0.00 0.00 0.00 82 1013.3
20260505090125 55 98 0.0 1.7 0.00 0.00 0.00 84 1013.3
20260505085111 54 110 0.0 0.9 0.00 0.00 0.00 85 1013.4
20260505084121 53 113 0.0 0.9 0.00 0.00 0.00 85 1013.4
20260505083134 53 105 0.0 2.6 0.00 0.00 0.00 86 1013.4
20260505082124 53 108 0.0 1.7 0.00 0.00 0.00 86 1013.3
20260505081115 53 96 0.0 0.9 0.00 0.00 0.00 85 1013.4
20260505080149 53 94 0.0 0.9 0.00 0.00 0.00 85 1013.4
20260505075114 54 68 0.0 0.9 0.00 0.00 0.00 84 1013.3
20260505074127 54 108 0.0 0.9 0.00 0.00 0.00 84 1013.4
20260505073112 54 75 0.0 2.6 0.00 0.00 0.00 84 1013.3
20260505072124 54 109 0.0 2.6 0.00 0.00 0.00 85 1013.3
20260505071110 53 92 0.0 1.7 0.00 0.00 0.00 87 1013.3
20260505070150 53 141 0.0 1.7 0.00 0.00 0.00 88 1013.3
20260505065115 52 96 0.0 1.7 0.00 0.00 0.00 89 1013.4
20260505064128 52 154 0.0 1.7 0.00 0.00 0.00 89 1013.4
20260505063114 52 140 0.0 0.9 0.00 0.00 0.00 90 1013.3
20260505062127 52 105 0.0 0.9 0.00 0.00 0.00 90 1013.3
20260505061113 52 105 0.0 0.9 0.00 0.00 0.00 91 1013.2
20260505060127 52 76 0.0 1.7 0.00 0.00 0.00 91 1013.2
20260505055113 52 134 0.0 1.7 0.00 0.00 0.00 91 1013.2
20260505054142 52 85 0.0 0.9 0.00 0.00 0.00 91 1013.2
20260505053133 52 73 0.0 1.7 0.00 0.00 0.00 91 1013.2
20260505052123 52 103 0.0 0.9 0.00 0.00 0.00 91 1013.1
20260505051116 52 101 0.0 1.7 0.00 0.00 0.00 91 1013.1
20260505050122 52 110 0.0 0.9 0.00 0.00 0.00 91 1013.0
20260505041136 52 110 0.0 0.0 0.00 0.00 0.00 91 1013.0
20260505040121 52 109 0.0 0.0 0.00 0.00 0.00 92 1013.0
20260505035114 52 109 0.0 0.9 0.00 0.00 0.00 92 1013.0
20260505034119 52 112 0.0 0.0 0.00 0.00 0.00 92 1012.9
20260505033110 52 100 0.0 0.9 0.00 0.00 0.00 92 1012.9
20260505032122 52 96 0.0 0.0 0.00 0.00 0.00 91 1013.0
20260505031135 52 86 0.0 0.0 0.00 0.00 0.00 91 1013.0
20260505030119 52 73 0.0 0.0 0.00 0.00 0.00 91 1012.9
20260505025132 53 103 0.0 0.9 0.00 0.00 0.00 91 1012.9
20260505024121 53 103 0.0 0.0 0.00 0.00 0.00 91 1012.9
20260505023115 52 103 0.0 0.9 0.00 0.00 0.00 92 1012.9
20260505022121 52 100 0.0 0.9 0.00 0.00 0.00 92 1012.9
20260505021134 52 96 0.0 0.9 0.00 0.00 0.00 92 1013.0
20260505020123 52 91 0.0 0.9 0.00 0.00 0.00 92 1013.1
20260505015136 51 94 0.0 0.9 0.00 0.00 0.00 91 1013.1
20260505014124 51 94 0.0 0.0 0.00 0.00 0.00 90 1013.2
20260505013110 52 94 0.0 0.0 0.00 0.00 0.00 90 1013.2
20260505012143 52 94 0.0 0.0 0.00 0.00 0.00 89 1013.2
20260505011117 53 94 0.0 0.0 0.00 0.00 0.00 89 1013.3
20260505010149 53 94 0.0 0.9 0.00 0.00 0.00 89 1013.3
20260505005114 54 94 0.0 0.9 0.00 0.00 0.00 88 1013.4
20260505004123 54 116 0.0 0.0 0.00 0.00 0.00 89 1013.4
20260505003135 54 116 0.0 0.9 0.00 0.00 0.00 89 1013.5
20260505002121 54 116 0.0 0.0 0.00 0.00 0.00 89 1013.6
20260505001113 54 116 0.0 0.9 0.00 0.00 0.00 89 1013.7
20260505000127 54 117 0.0 0.0 0.00 0.00 0.00 89 1013.8
20260504235141 54 117 0.0 0.9 0.00 0.00 0.00 89 1013.8
20260504234130 54 93 0.0 0.9 0.00 0.00 0.00 89 1013.8
20260504233114 54 84 0.0 0.9 0.00 0.00 0.00 89 1013.7
20260504232143 54 75 0.0 2.6 0.00 0.00 0.00 89 1013.6
20260504231120 54 92 0.0 0.9 0.00 0.00 0.00 89 1013.5
20260504230132 55 97 0.0 1.7 0.00 0.00 0.00 90 1013.5
20260504225118 55 82 0.0 0.9 0.00 0.00 0.00 91 1013.5
20260504224131 55 118 0.0 0.0 0.00 0.00 0.00 91 1013.6
20260504223138 54 91 0.0 0.0 0.00 0.00 0.00 91 1013.7
20260504222129 54 91 0.0 0.0 0.00 0.00 0.00 91 1013.7
20260504221121 54 91 0.0 0.9 0.00 0.00 0.00 91 1013.7
20260504220123 54 85 0.0 0.0 0.00 0.00 0.00 89 1013.7
20260504215114 55 85 0.0 0.0 0.00 0.00 0.00 90 1013.7